#timestamp,LO_Frequency,Hit,StdDev 
1549490415.9,286046997.6,N
1549490435.7,286046999.6,N
1549490455.6,286046999.6,N
1549490475.4,286046996.6,N
1549490495.2,286046998.0,N
1549490515.1,286046997.2,N
1549490516.0,286046997.2,N
1549490535.8,286046999.2,N
1549490555.6,286046999.4,N
1549490575.5,286046997.0,N
1549490595.3,286046996.5,N
1549490615.2,286046998.7,N
1549490635.9,286046996.6,N
1549490655.7,286046996.9,N
1549490675.6,286046998.7,N
1549490695.4,286046999.5,N
1549490715.2,286046998.9,N
1549490735.1,286046998.9,N
1549490736.0,286046998.9,N
1549490755.8,286046999.6,N
1549490775.7,286046998.4,N
1549490795.5,286047000.1,N
1549490815.3,286046998.5,N
1549490835.2,286046996.6,N
1549490855.0,286046996.5,N
1549490855.9,286046996.5,N
1549490875.7,286046997.1,N
1549490895.6,286046999.6,N
1549490915.4,286046997.8,N
1549490935.3,286046995.4,Y
1549490955.1,286046997.4,P
1549490975.8,286046997.4,P
1549490995.7,286046997.0,P
1549491015.5,286046997.1,Y
1549491035.4,286046999.9,P
1549491055.2,286047000.1,N
1549491075.0,286046999.8,N
1549491075.9,286046999.8,N
1549491095.8,286047002.6,N
1549491115.6,286047001.8,N
1549491135.4,286047001.8,N
1549491155.3,286047001.6,N
1549491175.1,286047002.3,N
1549491195.9,286047002.0,N
1549491215.7,286046999.7,N
1549491235.5,286047002.7,N
1549491255.4,286046999.8,N
1549491275.2,286047002.3,N
1549491295.0,286047000.2,N
1549491295.9,286047000.2,N
1549491315.8,286047000.5,N
1549491335.6,286047001.6,N
1549491355.4,286047000.2,N
1549491375.3,286047002.2,N
1549491395.1,286047002.4,N
1549491415.9,286047001.7,N
1549491435.7,286047002.8,N
1549491455.5,286047002.4,N
1549491475.4,286047001.8,N
1549491495.2,286047001.8,N
1549491515.1,286047001.7,N
1549491516.0,286047001.7,N
1549491535.8,286047001.6,N
1549491555.6,286047001.8,N
1549491575.5,286047002.3,N
1549491595.3,286047000.1,N
1549491615.1,286046999.9,N
1549491635.9,286047002.8,N
1549491655.7,286047000.1,N
1549491675.6,286047000.7,N
1549491695.4,286046999.8,N
1549491715.2,286047002.2,N
1549491735.1,286047001.6,N
1549491736.0,286047001.6,N
1549491755.8,286047003.9,Y
1549491775.7,286046999.7,P
1549491795.5,286047000.1,N
1549491815.3,286046999.8,N
1549491835.2,286047002.3,Y
1549491855.9,286046998.5,P
1549491875.7,286047000.8,N
1549491895.6,286047000.5,N
1549491915.4,286046998.8,N
1549491935.3,286047000.3,N
1549491955.1,286047000.5,N
1549491956.0,286047000.5,N
1549491975.8,286047000.6,N
1549491995.7,286047000.6,N
1549492015.5,286047000.8,N
1549492035.3,286046998.4,N
1549492055.2,286047001.2,N
1549492075.0,286047000.7,N
1549492075.9,286047000.7,N
1549492095.8,286047000.6,N
1549492115.6,286046999.8,N
1549492135.4,286047002.4,N
1549492155.3,286047002.7,N
1549492175.1,286047000.1,N
1549492195.8,286047000.6,N
1549492215.7,286046999.8,N
1549492235.5,286047001.8,N
1549492255.4,286047001.9,N
1549492275.2,286047001.7,N
1549492295.0,286047004.0,Y
1549492295.9,286047004.0,P
1549492315.8,286047001.8,N
1549492335.6,286047004.3,P
1549492355.4,286047004.2,N
1549492375.3,286047004.4,N
1549492395.1,286047003.6,N
1549492415.9,286047004.2,Y
1549492435.7,286047001.2,P
1549492455.5,286046998.2,N
1549492475.4,286047000.4,N
1549492495.2,286047002.3,N
1549492515.0,286047001.9,N
1549492515.9,286047001.9,N
1549492535.8,286047001.7,N
1549492555.6,286047004.4,Y
1549492575.5,286047002.5,P
1549492595.3,286047002.8,P
1549492615.1,286046999.9,N
1549492635.9,286047000.5,N
1549492655.7,286047001.1,N
1549492675.5,286047000.5,N
1549492695.4,286046998.5,N
1549492715.2,286046999.0,N
1549492735.1,286046999.3,N
1549492736.0,286046999.3,N
1549492755.8,286046998.2,N
1549492775.6,286046998.6,N
1549492795.5,286047000.8,N
1549492815.3,286046998.4,N
1549492835.1,286047001.2,N
1549492855.9,286047001.1,N
1549492875.7,286046999.8,N
1549492895.6,286047000.5,N
1549492915.4,286047000.5,N
1549492935.2,286047000.0,N
1549492955.1,286046999.9,N
1549492956.0,286046999.9,N
1549492975.8,286047002.4,N
1549492995.6,286046999.7,N
1549493015.5,286047001.0,N
1549493035.3,286046999.7,N
1549493055.2,286047000.3,N
1549493075.9,286047001.8,N
1549493095.7,286047001.3,N
1549493115.6,286047004.2,Y
1549493135.4,286047004.0,P
1549493155.2,286047003.6,N
1549493175.1,286047001.5,N
1549493176.0,286047001.5,N
1549493195.8,286047001.7,N
1549493215.7,286047002.1,N
1549493235.5,286047001.4,N
1549493255.3,286047002.8,N
1549493275.2,286047002.8,N
1549493295.0,286047001.8,N
1549493295.9,286047001.8,N
1549493315.7,286047002.8,N
1549493335.6,286047002.3,N
1549493355.4,286047002.3,N
1549493375.3,286047002.2,N
1549493395.1,286047001.6,N
1549493396.0,286047001.6,N
1549493415.8,286047004.0,Y
1549493435.7,286047000.7,P
1549493455.5,286047000.7,N
1549493475.3,286047000.0,N
1549493495.2,286047002.6,Y
1549493515.0,286047000.4,P
1549493515.9,286047000.4,N
1549493535.8,286047000.5,N
1549493555.6,286047000.4,N
1549493575.4,286047000.4,N
1549493595.3,286047000.0,N
1549493615.1,286047001.0,Y
1549493635.9,286046998.1,P
1549493655.7,286046998.1,N
1549493675.5,286046999.3,N
1549493695.4,286046997.2,N
1549493715.2,286046996.8,N
1549493735.0,286046997.3,N
1549493735.9,286046997.3,N
1549493755.8,286046997.7,N
1549493775.6,286046996.8,N
1549493795.5,286046997.7,N
1549493815.3,286046997.7,N
1549493835.1,286046997.2,N
1549493855.9,286046999.4,N
1549493875.7,286046998.9,N
1549493895.5,286046999.4,N
1549493915.4,286046998.3,N
1549493935.2,286047001.0,N
1549493955.0,286046998.2,N
1549493956.0,286046998.2,N
1549493975.8,286047000.9,N
1549493995.6,286047000.8,N
